Scottsbluff, NE

3:53 AM MDT on July 22, 2017 (GMT -0600)
Heilig

Weather History for KBFF - December, 2008

Change the Weather History Date:

Wednesday, December 31, 2008

  Actual Average Record
Temperature  
Mean Temperature 30 °F 26 °F  
Max Temperature 51 °F 40 °F 67 °F (1904)
Min Temperature 9 °F 12 °F -30 °F (1923)
Degree Days  
Heating Degree Days 35 39  
Month to date heating degree days 1283 1208  
Since 1 July heating degree days 2738 2772  
Cooling Degree Days 0 0  
Month to date cooling degree days 0  
Year to date cooling degree days 724  
Moisture  
Dew Point 9 °F    
Average Humidity 45    
Maximum Humidity 84    
Minimum Humidity 13    
Precipitation  
Precipitation 0.00 in 0.02 in 0.90 in (1975)
Month to date precipitation 0.20 0.51  
Year to date precipitation 14.28 15.79  
Snow  
Snow 0.00 in 0.20 in 10.90 in (1975)
Month to date snowfall 4.3 7.1  
Since 1 July snowfall 5.5 16.0  
Snow Depth 0.00 in    
Sea Level Pressure  
Sea Level Pressure 30.03 in    
Wind  
Wind Speed 9 mph (SE)    
Max Wind Speed 25 mph    
Max Gust Speed 38 mph    
Visibility 10 miles    
Events      
T = Trace of Precipitation, MM = Missing Value Source: NWS Daily Summary

Daily Weather History Graph

Daily Weather History Graph

Search for Another Location

Airport or City:

Trip Planner

Search our weather history database for the weather conditions in past years. The results will help you decide how hot, cold, wet, or windy it might be!

Date:

Astronomy

Dec. 31, 2008 Rise Set
Actual Time 7:22 AM MST 4:33 PM MST
Civil Twilight 6:50 AM MST 5:05 PM MST
Nautical Twilight 6:15 AM MST 5:40 PM MST
Astronomical Twilight 5:41 AM MST 6:13 PM MST
Moon 9:45 AM MST (12/31) 8:49 PM MST (12/31)
Length of Visible Light 10h 14m
Length of Day
9h 11m
Waxing Crescent, 16% of the Moon is Illuminated
Dec 31
Waxing Crescent
Jan 4
First Quarter
Jan 10
Full
Jan 17
Last Quarter
Jan 26
New

Hourly Weather History & Observations

Time (MST) Temp. Windchill Dew Point Humidity Pressure Visibility Wind Dir Wind Speed Gust Speed Precip Events Conditions
12:53 AM 12.9 °F 2.6 °F 7.0 °F 77% 30.43 in 10.0 mi East 6.9 mph - N/A   Clear
1:53 AM 10.0 °F 3.6 °F 6.1 °F 84% 30.43 in 10.0 mi ESE 3.5 mph - N/A   Clear
2:53 AM 10.9 °F 0.2 °F 6.1 °F 81% 30.42 in 10.0 mi East 6.9 mph - N/A   Clear
3:53 AM 10.9 °F 2.9 °F 6.1 °F 81% 30.39 in 10.0 mi East 4.6 mph - N/A   Clear
4:53 AM 14.0 °F 3.9 °F 7.0 °F 74% 30.36 in 10.0 mi East 6.9 mph - N/A   Partly Cloudy
5:53 AM 15.1 °F 4.2 °F 7.0 °F 70% 30.32 in 10.0 mi East 8.1 mph - N/A   Scattered Clouds
6:53 AM 16.0 °F 2.9 °F 8.1 °F 71% 30.29 in 10.0 mi ESE 11.5 mph - N/A   Partly Cloudy
7:53 AM 15.1 °F 5.2 °F 8.1 °F 74% 30.27 in 10.0 mi ESE 6.9 mph - N/A   Clear
8:53 AM 25.0 °F 14.2 °F 10.0 °F 53% 30.20 in 10.0 mi SE 11.5 mph - N/A   Clear
9:53 AM 30.9 °F 22.8 °F 12.0 °F 46% 30.16 in 10.0 mi SE 9.2 mph - N/A   Clear
10:53 AM 35.1 °F 27.9 °F 14.0 °F 42% 30.08 in 10.0 mi SSE 9.2 mph - N/A   Clear
11:53 AM 39.0 °F 32.3 °F 16.0 °F 39% 30.01 in 10.0 mi SE 10.4 mph - N/A   Clear
12:53 PM 45.0 °F 41.2 °F 16.0 °F 31% 29.93 in 10.0 mi SSE 6.9 mph - N/A   Clear
1:53 PM 46.0 °F 41.4 °F 16.0 °F 30% 29.88 in 10.0 mi ESE 9.2 mph - N/A   Clear
2:53 PM 45.0 °F 39.3 °F 16.0 °F 31% 29.85 in 10.0 mi East 11.5 mph - N/A   Clear
4:53 PM 50.0 °F - 1.0 °F 13% 29.77 in 10.0 mi West 19.6 mph 27.6 mph N/A   Clear
5:53 PM 46.0 °F 40.2 °F 1.0 °F 16% 29.79 in 10.0 mi WNW 12.7 mph - N/A   Clear
6:53 PM 46.0 °F 40.2 °F 1.0 °F 16% 29.76 in 10.0 mi WSW 12.7 mph - N/A   Clear
7:53 PM 42.1 °F 37.7 °F 1.9 °F 19% 29.75 in 10.0 mi NW 6.9 mph - N/A   Clear
8:53 PM 48.9 °F - 9.0 °F 20% 29.69 in 10.0 mi West 20.7 mph 31.1 mph N/A   Clear
9:53 PM 44.1 °F 40.1 °F 10.0 °F 25% 29.69 in 10.0 mi WNW 6.9 mph - N/A   Clear
10:53 PM 51.1 °F - 14.0 °F 23% 29.66 in 10.0 mi West 25.3 mph 38.0 mph N/A   Clear
11:53 PM 50.0 °F - 16.0 °F 26% 29.65 in 10.0 mi WNW 18.4 mph 26.5 mph N/A   Clear